EZS32GV LSGG-LFKJ

Flight info

Callsign EZS32GV
Flight time 1h 16m
Altitude 31000
Route MEDAM DCT VEVAR/N0431F350 DCT BARSO DCT KOLON DCT OMARD M623 VAREK
Aircraft A320/M-SDE2E3FGHIJ1RWXYZ/LB1

Departure

Time 2026-04-23 21:10
Airport Geneva International Airport (LSGG)

Arrival

Time 2026-04-23 22:27
Airport Ajaccio Napoléon Bonaparte airport (LFKJ)
Time Latitude Longitude Altitude Speed Heading
2026-04-23 20:16 46.23151 6.10747 1402 ft 0 kts 135°
2026-04-23 20:23 46.23152 6.10747 1393 ft 0 kts 135°
2026-04-23 20:25 46.23152 6.10746 1393 ft 0 kts 135°
2026-04-23 20:40 46.23151 6.10747 1393 ft 0 kts 135°
2026-04-23 20:52 46.23154 6.10743 1403 ft 3 kts 135°
2026-04-23 20:52 46.23172 6.10714 1397 ft 4 kts 121°
2026-04-23 20:53 46.23183 6.10679 1404 ft 4 kts 108°
2026-04-23 20:53 46.23194 6.10646 1402 ft 4 kts 137°
2026-04-23 20:53 46.23209 6.10626 1396 ft 0 kts 136°
2026-04-23 21:04 46.23243 6.10693 1396 ft 1 kts 90°
2026-04-23 21:05 46.23243 6.10713 1399 ft 4 kts 90°
2026-04-23 21:05 46.23244 6.10763 1393 ft 4 kts 77°
2026-04-23 21:05 46.23264 6.10781 1400 ft 4 kts 18°
2026-04-23 21:05 46.23306 6.10795 1393 ft 8 kts 13°
2026-04-23 21:06 46.23363 6.10781 1400 ft 8 kts 319°
2026-04-23 21:06 46.23400 6.10727 1400 ft 7 kts 315°
2026-04-23 21:06 46.23419 6.10670 1394 ft 6 kts 262°
2026-04-23 21:06 46.23388 6.10625 1394 ft 10 kts 221°
2026-04-23 21:07 46.23301 6.10499 1398 ft 21 kts 225°
2026-04-23 21:07 46.23197 6.10346 1401 ft 22 kts 225°
2026-04-23 21:07 46.23101 6.10194 1397 ft 19 kts 224°
2026-04-23 21:07 46.23008 6.10057 1400 ft 19 kts 225°
2026-04-23 21:08 46.22939 6.09957 1406 ft 12 kts 225°
2026-04-23 21:08 46.22886 6.09878 1400 ft 11 kts 226°
2026-04-23 21:08 46.22811 6.09770 1397 ft 20 kts 224°
2026-04-23 21:08 46.22697 6.09600 1399 ft 25 kts 226°
2026-04-23 21:09 46.22577 6.09419 1401 ft 23 kts 233°
2026-04-23 21:09 46.22553 6.09229 1410 ft 16 kts 280°
2026-04-23 21:09 46.22617 6.09164 1416 ft 11 kts 15°
2026-04-23 21:09 46.22732 6.09321 1419 ft 50 kts 45°
2026-04-23 21:10 46.23145 6.09925 1414 ft 116 kts 45°
2026-04-23 21:10 46.23841 6.10943 1382 ft 166 kts 45°
2026-04-23 21:10 46.24675 6.12196 1884 ft 173 kts 46°
2026-04-23 21:10 46.25497 6.13452 2553 ft 171 kts 46°
2026-04-23 21:11 46.26305 6.14681 3232 ft 167 kts 46°
2026-04-23 21:11 46.27092 6.15868 3851 ft 161 kts 46°
2026-04-23 21:11 46.27916 6.17076 4245 ft 179 kts 46°
2026-04-23 21:11 46.28850 6.18430 4513 ft 201 kts 46°
2026-04-23 21:12 46.29896 6.19947 4757 ft 225 kts 46°
2026-04-23 21:12 46.31065 6.21642 5110 ft 250 kts 45°
2026-04-23 21:12 46.32330 6.23477 5757 ft 262 kts 45°
2026-04-23 21:12 46.33605 6.25361 6551 ft 269 kts 49°
2026-04-23 21:13 46.34534 6.27719 7311 ft 275 kts 74°
2026-04-23 21:13 46.34678 6.30475 8167 ft 279 kts 99°
2026-04-23 21:13 46.33963 6.33083 9045 ft 284 kts 125°
2026-04-23 21:13 46.32494 6.34988 9896 ft 290 kts 151°
2026-04-23 21:14 46.30612 6.36136 10550 ft 302 kts 157°
2026-04-23 21:14 46.28581 6.37279 10843 ft 324 kts 157°
2026-04-23 21:14 46.26440 6.38475 11420 ft 334 kts 157°
2026-04-23 21:14 46.24256 6.39695 12162 ft 339 kts 157°
2026-04-23 21:15 46.22072 6.40915 12861 ft 345 kts 156°
2026-04-23 21:15 46.19786 6.42198 13586 ft 349 kts 156°
2026-04-23 21:15 46.17506 6.43485 14271 ft 354 kts 156°
2026-04-23 21:15 46.15204 6.44786 14927 ft 356 kts 156°
2026-04-23 21:16 46.12885 6.46092 15586 ft 359 kts 156°
2026-04-23 21:16 46.10550 6.47407 16283 ft 361 kts 156°
2026-04-23 21:16 46.08201 6.48729 16952 ft 364 kts 156°
2026-04-23 21:16 46.05833 6.50061 17619 ft 367 kts 156°
2026-04-23 21:17 46.03448 6.51403 18285 ft 370 kts 156°
2026-04-23 21:17 46.01044 6.52757 18875 ft 372 kts 156°
2026-04-23 21:17 45.98624 6.54123 19437 ft 375 kts 156°
2026-04-23 21:17 45.96181 6.55494 19982 ft 378 kts 156°
2026-04-23 21:18 45.93721 6.56871 20521 ft 381 kts 156°
2026-04-23 21:18 45.91236 6.58257 21048 ft 384 kts 156°
2026-04-23 21:18 45.88771 6.59632 21585 ft 386 kts 156°
2026-04-23 21:18 45.86257 6.61036 22112 ft 389 kts 156°
2026-04-23 21:19 45.83727 6.62446 22636 ft 392 kts 156°
2026-04-23 21:19 45.81179 6.63862 23158 ft 394 kts 156°
2026-04-23 21:19 45.78611 6.65288 23674 ft 397 kts 156°
2026-04-23 21:19 45.76020 6.66727 24107 ft 399 kts 156°
2026-04-23 21:20 45.73424 6.68167 24537 ft 401 kts 156°
2026-04-23 21:20 45.70808 6.69616 24885 ft 405 kts 156°
2026-04-23 21:20 45.68174 6.71075 25273 ft 408 kts 156°
2026-04-23 21:20 45.65520 6.72544 25671 ft 410 kts 156°
2026-04-23 21:21 45.62857 6.74020 26090 ft 412 kts 156°
2026-04-23 21:21 45.60179 6.75497 26495 ft 413 kts 156°
2026-04-23 21:21 45.57491 6.76976 26886 ft 415 kts 156°
2026-04-23 21:21 45.54794 6.78457 27257 ft 417 kts 156°
2026-04-23 21:22 45.52080 6.79950 27621 ft 419 kts 156°
2026-04-23 21:22 45.49358 6.81449 28021 ft 420 kts 156°
2026-04-23 21:22 45.46792 6.82863 28393 ft 422 kts 156°
2026-04-23 21:22 45.44043 6.84377 28772 ft 424 kts 156°
2026-04-23 21:23 45.41286 6.85892 29152 ft 426 kts 156°
2026-04-23 21:23 45.38512 6.87412 29508 ft 428 kts 156°
2026-04-23 21:23 45.35728 6.88934 29870 ft 430 kts 156°
2026-04-23 21:23 45.32968 6.90443 30224 ft 432 kts 156°
2026-04-23 21:24 45.30156 6.91979 30517 ft 433 kts 156°
2026-04-23 21:24 45.27311 6.93444 30779 ft 437 kts 161°
2026-04-23 21:24 45.24328 6.94351 31041 ft 442 kts 170°
2026-04-23 21:24 45.21264 6.94831 31188 ft 444 kts 171°
2026-04-23 21:25 45.15103 6.95777 31224 ft 446 kts 171°
2026-04-23 21:25 45.08931 6.96742 31225 ft 446 kts 171°
2026-04-23 21:26 45.02760 6.97706 31222 ft 446 kts 171°
2026-04-23 21:26 44.96588 6.98675 31183 ft 446 kts 171°
2026-04-23 21:27 44.90411 6.99644 31177 ft 447 kts 171°
2026-04-23 21:27 44.84228 7.00609 31183 ft 447 kts 172°
2026-04-23 21:28 44.78008 7.00879 31183 ft 450 kts 185°
2026-04-23 21:28 44.71795 6.99703 31176 ft 451 kts 186°
2026-04-23 21:29 44.65578 6.98537 31178 ft 451 kts 186°
2026-04-23 21:29 44.59357 6.97380 31179 ft 451 kts 185°
2026-04-23 21:30 44.53178 6.96232 31185 ft 451 kts 185°
2026-04-23 21:30 44.46958 6.95077 31188 ft 451 kts 186°
2026-04-23 21:31 44.40734 6.93913 31186 ft 451 kts 186°
2026-04-23 21:31 44.34514 6.92744 31186 ft 450 kts 186°
2026-04-23 21:32 44.28395 6.91605 31186 ft 451 kts 186°
2026-04-23 21:32 44.22078 6.90448 31186 ft 451 kts 186°
2026-04-23 21:33 44.15856 6.89338 31188 ft 451 kts 182°
2026-04-23 21:33 44.09624 6.89722 31191 ft 448 kts 172°
2026-04-23 21:34 44.03423 6.90662 31194 ft 448 kts 172°
2026-04-23 21:34 43.97221 6.91607 31192 ft 448 kts 173°
2026-04-23 21:35 43.91013 6.92538 31191 ft 448 kts 173°
2026-04-23 21:35 43.84808 6.93461 31184 ft 448 kts 173°
2026-04-23 21:36 43.75555 6.94989 31176 ft 448 kts 166°
2026-04-23 21:37 43.69783 6.98079 31175 ft 445 kts 148°
2026-04-23 21:37 43.64776 7.03093 31168 ft 445 kts 142°
2026-04-23 21:38 43.59842 7.08246 31170 ft 445 kts 142°
2026-04-23 21:38 43.54881 7.13400 31172 ft 447 kts 142°
2026-04-23 21:39 43.49917 7.18544 31169 ft 447 kts 142°
2026-04-23 21:39 43.44962 7.23680 31171 ft 439 kts 142°
2026-04-23 21:39 43.42569 7.26160 31174 ft 422 kts 142°
2026-04-23 21:40 43.40269 7.28537 31175 ft 405 kts 142°
2026-04-23 21:40 43.38061 7.30811 31175 ft 389 kts 142°
2026-04-23 21:40 43.35933 7.33001 31176 ft 377 kts 142°
2026-04-23 21:41 43.31763 7.37294 31184 ft 373 kts 142°
2026-04-23 21:41 43.27616 7.41556 31180 ft 372 kts 142°
2026-04-23 21:42 43.23496 7.45787 31182 ft 372 kts 142°
2026-04-23 21:42 43.19347 7.50038 31181 ft 372 kts 142°
2026-04-23 21:42 43.17270 7.52166 31051 ft 374 kts 142°
2026-04-23 21:43 43.15171 7.54311 30453 ft 378 kts 143°
2026-04-23 21:43 43.13089 7.56435 30226 ft 369 kts 142°
2026-04-23 21:43 43.10996 7.58440 29854 ft 365 kts 149°
2026-04-23 21:43 43.08732 7.59985 29380 ft 364 kts 158°
2026-04-23 21:44 43.06359 7.61168 28895 ft 363 kts 159°
2026-04-23 21:44 43.03980 7.62340 28328 ft 364 kts 159°
2026-04-23 21:44 43.01606 7.63513 27925 ft 361 kts 159°
2026-04-23 21:44 42.99256 7.64678 27523 ft 358 kts 159°
2026-04-23 21:45 42.96923 7.65839 27127 ft 356 kts 159°
2026-04-23 21:45 42.94605 7.66994 26718 ft 353 kts 159°
2026-04-23 21:45 42.92299 7.68140 26314 ft 352 kts 159°
2026-04-23 21:45 42.90002 7.69275 25904 ft 350 kts 159°
2026-04-23 21:46 42.87715 7.70402 25480 ft 349 kts 159°
2026-04-23 21:46 42.85435 7.71528 25049 ft 348 kts 159°
2026-04-23 21:46 42.83162 7.72654 24628 ft 347 kts 159°
2026-04-23 21:46 42.80893 7.73776 24205 ft 347 kts 159°
2026-04-23 21:47 42.78646 7.74883 23898 ft 342 kts 158°
2026-04-23 21:47 42.76395 7.75997 23397 ft 342 kts 158°
2026-04-23 21:47 42.74182 7.77091 23144 ft 336 kts 158°
2026-04-23 21:47 42.71996 7.78168 22765 ft 333 kts 158°
2026-04-23 21:48 42.69822 7.79237 22375 ft 331 kts 158°
2026-04-23 21:48 42.67663 7.80299 21997 ft 329 kts 158°
2026-04-23 21:48 42.65514 7.81357 21640 ft 328 kts 158°
2026-04-23 21:48 42.63372 7.82408 21262 ft 326 kts 158°
2026-04-23 21:49 42.61271 7.83437 20930 ft 324 kts 159°
2026-04-23 21:49 42.59156 7.84476 20589 ft 323 kts 159°
2026-04-23 21:49 42.57057 7.85505 20132 ft 319 kts 159°
2026-04-23 21:49 42.54973 7.86525 19553 ft 318 kts 159°
2026-04-23 21:50 42.52897 7.87538 18991 ft 316 kts 159°
2026-04-23 21:50 42.50826 7.88548 18513 ft 316 kts 159°
2026-04-23 21:50 42.48764 7.89555 18081 ft 313 kts 159°
2026-04-23 21:50 42.46719 7.90554 17704 ft 311 kts 159°
2026-04-23 21:51 42.44674 7.91552 17337 ft 312 kts 158°
2026-04-23 21:51 42.42629 7.92550 16966 ft 313 kts 159°
2026-04-23 21:51 42.40583 7.93545 16653 ft 311 kts 159°
2026-04-23 21:51 42.38564 7.94525 16329 ft 310 kts 158°
2026-04-23 21:52 42.36535 7.95509 16082 ft 306 kts 158°
2026-04-23 21:52 42.35214 7.96151 15965 ft 303 kts 158°
2026-04-23 21:52 42.33243 7.97112 15725 ft 300 kts 157°
2026-04-23 21:52 42.31375 7.98311 15452 ft 295 kts 145°
2026-04-23 21:53 42.29751 7.99951 15032 ft 289 kts 134°
2026-04-23 21:53 42.28278 8.01780 14520 ft 287 kts 134°
2026-04-23 21:53 42.26806 8.03593 14045 ft 285 kts 134°
2026-04-23 21:53 42.25342 8.05387 13622 ft 284 kts 134°
2026-04-23 21:54 42.23882 8.07174 13285 ft 282 kts 134°
2026-04-23 21:54 42.22432 8.08951 12950 ft 281 kts 134°
2026-04-23 21:54 42.21001 8.10700 12623 ft 282 kts 134°
2026-04-23 21:54 42.19548 8.12476 12284 ft 282 kts 134°
2026-04-23 21:55 42.17610 8.14848 11860 ft 280 kts 134°
2026-04-23 21:55 42.16661 8.16006 11729 ft 276 kts 134°
2026-04-23 21:55 42.15227 8.17761 11363 ft 277 kts 134°
2026-04-23 21:55 42.13816 8.19482 10981 ft 272 kts 134°
2026-04-23 21:56 42.12407 8.21204 10585 ft 275 kts 134°
2026-04-23 21:56 42.11004 8.22915 10368 ft 270 kts 134°
2026-04-23 21:56 42.09600 8.24622 9974 ft 272 kts 135°
2026-04-23 21:56 42.08213 8.26303 9750 ft 266 kts 135°
2026-04-23 21:57 42.06846 8.27960 9433 ft 264 kts 135°
2026-04-23 21:57 42.05488 8.29610 9097 ft 262 kts 135°
2026-04-23 21:57 42.04138 8.31253 8750 ft 261 kts 135°
2026-04-23 21:57 42.02798 8.32885 8406 ft 259 kts 135°
2026-04-23 21:58 42.01463 8.34509 8057 ft 258 kts 135°
2026-04-23 21:58 42.00133 8.36120 7734 ft 256 kts 135°
2026-04-23 21:58 41.98817 8.37713 7402 ft 254 kts 135°
2026-04-23 21:58 41.97508 8.39297 7064 ft 252 kts 135°
2026-04-23 21:59 41.96229 8.40849 6735 ft 251 kts 135°
2026-04-23 21:59 41.95085 8.42577 6449 ft 244 kts 121°
2026-04-23 21:59 41.94323 8.44535 6328 ft 231 kts 108°
2026-04-23 22:00 41.93286 8.48467 6031 ft 218 kts 107°
2026-04-23 22:00 41.92763 8.50428 5466 ft 230 kts 108°
2026-04-23 22:00 41.92208 8.52513 4852 ft 244 kts 108°
2026-04-23 22:00 41.91628 8.54683 4444 ft 246 kts 108°
2026-04-23 22:01 41.91055 8.56818 4245 ft 240 kts 108°
2026-04-23 22:01 41.90500 8.58886 4122 ft 231 kts 108°
2026-04-23 22:01 41.89968 8.60873 4017 ft 221 kts 109°
2026-04-23 22:01 41.89197 8.62575 3998 ft 210 kts 136°
2026-04-23 22:02 41.87973 8.63513 4000 ft 199 kts 165°
2026-04-23 22:02 41.86611 8.63600 4006 ft 197 kts 191°
2026-04-23 22:02 41.85364 8.62865 4008 ft 198 kts 219°
2026-04-23 22:02 41.84478 8.61430 4014 ft 208 kts 246°
2026-04-23 22:03 41.84169 8.59484 4013 ft 222 kts 275°
2026-04-23 22:03 41.84617 8.57524 4007 ft 222 kts 305°
2026-04-23 22:03 41.85657 8.56002 4005 ft 222 kts 318°
2026-04-23 22:03 41.86779 8.54577 4004 ft 223 kts 318°
2026-04-23 22:04 41.87907 8.53152 4003 ft 223 kts 318°
2026-04-23 22:04 41.89034 8.51728 4003 ft 222 kts 318°
2026-04-23 22:04 41.90159 8.50305 4003 ft 222 kts 318°
2026-04-23 22:04 41.91415 8.49138 3996 ft 220 kts 341°
2026-04-23 22:05 41.92911 8.48936 3999 ft 217 kts 12°
2026-04-23 22:05 41.94266 8.49777 4002 ft 216 kts 41°
2026-04-23 22:05 41.95113 8.51422 4003 ft 218 kts 71°
2026-04-23 22:05 41.95221 8.53438 4003 ft 220 kts 102°
2026-04-23 22:06 41.94553 8.55251 4003 ft 224 kts 131°
2026-04-23 22:06 41.93415 8.56729 4007 ft 225 kts 135°
2026-04-23 22:06 41.92288 8.58150 4003 ft 225 kts 135°
2026-04-23 22:06 41.91132 8.59610 4008 ft 226 kts 135°
2026-04-23 22:07 41.89991 8.61058 4010 ft 226 kts 136°
2026-04-23 22:07 41.88654 8.62138 4004 ft 227 kts 165°
2026-04-23 22:07 41.87090 8.62157 4007 ft 228 kts 197°
2026-04-23 22:07 41.85761 8.61095 4007 ft 228 kts 229°
2026-04-23 22:08 41.85024 8.59245 4006 ft 227 kts 260°
2026-04-23 22:08 41.85090 8.57171 4004 ft 224 kts 291°
2026-04-23 22:08 41.85914 8.55441 4005 ft 221 kts 317°
2026-04-23 22:08 41.87029 8.54005 4006 ft 223 kts 318°
2026-04-23 22:09 41.88155 8.52580 4004 ft 223 kts 318°
2026-04-23 22:09 41.89280 8.51161 4003 ft 221 kts 319°
2026-04-23 22:09 41.90402 8.49749 4002 ft 221 kts 321°
2026-04-23 22:09 41.91726 8.48772 3997 ft 218 kts 348°
2026-04-23 22:10 41.93219 8.48792 3999 ft 217 kts 18°
2026-04-23 22:10 41.94508 8.49814 4002 ft 217 kts 46°
2026-04-23 22:10 41.95252 8.51557 4003 ft 218 kts 75°
2026-04-23 22:10 41.95254 8.53581 4004 ft 221 kts 105°
2026-04-23 22:11 41.94493 8.55362 4004 ft 224 kts 133°
2026-04-23 22:11 41.93365 8.56815 4003 ft 225 kts 136°
2026-04-23 22:11 41.92227 8.58254 4006 ft 225 kts 136°
2026-04-23 22:11 41.91103 8.59674 4007 ft 225 kts 135°
2026-04-23 22:12 41.89960 8.61117 4007 ft 226 kts 136°
2026-04-23 22:12 41.88608 8.62158 4003 ft 227 kts 166°
2026-04-23 22:12 41.87043 8.62119 4007 ft 228 kts 198°
2026-04-23 22:12 41.85715 8.61003 4006 ft 228 kts 230°
2026-04-23 22:13 41.85012 8.59135 4005 ft 226 kts 262°
2026-04-23 22:13 41.85120 8.57066 4004 ft 224 kts 292°
2026-04-23 22:13 41.85974 8.55361 4007 ft 221 kts 317°
2026-04-23 22:13 41.87092 8.53926 4005 ft 223 kts 318°
2026-04-23 22:14 41.88219 8.52500 4004 ft 223 kts 318°
2026-04-23 22:14 41.89344 8.51080 4003 ft 222 kts 319°
2026-04-23 22:14 41.90473 8.49670 4001 ft 221 kts 321°
2026-04-23 22:14 41.91822 8.48757 3998 ft 218 kts 351°
2026-04-23 22:15 41.93316 8.48849 4000 ft 216 kts 19°
2026-04-23 22:15 41.94576 8.49913 4002 ft 217 kts 48°
2026-04-23 22:15 41.95277 8.51686 4004 ft 219 kts 77°
2026-04-23 22:15 41.95225 8.53715 4004 ft 221 kts 107°
2026-04-23 22:16 41.94414 8.55464 4006 ft 225 kts 134°
2026-04-23 22:16 41.93284 8.56920 4007 ft 225 kts 135°
2026-04-23 22:16 41.92146 8.58360 4007 ft 225 kts 136°
2026-04-23 22:16 41.91004 8.59802 4007 ft 226 kts 135°
2026-04-23 22:17 41.89857 8.61244 4007 ft 226 kts 139°
2026-04-23 22:17 41.88492 8.62192 4004 ft 226 kts 168°
2026-04-23 22:17 41.86935 8.62080 4007 ft 228 kts 200°
2026-04-23 22:17 41.85641 8.60900 4006 ft 228 kts 232°
2026-04-23 22:18 41.84993 8.59006 4002 ft 221 kts 264°
2026-04-23 22:18 41.85133 8.57049 3999 ft 205 kts 293°
2026-04-23 22:18 41.85873 8.55515 4001 ft 193 kts 316°
2026-04-23 22:18 41.86817 8.54256 4033 ft 191 kts 318°
2026-04-23 22:19 41.87786 8.53035 4016 ft 191 kts 319°
2026-04-23 22:19 41.88756 8.51821 4005 ft 190 kts 319°
2026-04-23 22:19 41.89720 8.50609 4001 ft 190 kts 319°
2026-04-23 22:19 41.90809 8.49647 3995 ft 187 kts 343°
2026-04-23 22:20 41.92088 8.49521 3951 ft 187 kts 13°
2026-04-23 22:20 41.93206 8.50330 3751 ft 184 kts 45°
2026-04-23 22:20 41.93819 8.51819 3547 ft 185 kts 77°
2026-04-23 22:20 41.93745 8.53534 3346 ft 188 kts 110°
2026-04-23 22:21 41.93068 8.55032 3153 ft 189 kts 124°
2026-04-23 22:21 41.92320 8.56471 3043 ft 187 kts 124°
2026-04-23 22:21 41.91577 8.57907 2993 ft 186 kts 124°
2026-04-23 22:21 41.90837 8.59337 3009 ft 186 kts 124°
2026-04-23 22:22 41.90128 8.60765 2999 ft 186 kts 116°
2026-04-23 22:22 41.89780 8.62452 3011 ft 186 kts 99°
2026-04-23 22:22 41.89607 8.64142 3003 ft 181 kts 97°
2026-04-23 22:22 41.89460 8.65782 2995 ft 171 kts 96°
2026-04-23 22:23 41.89338 8.67321 2972 ft 167 kts 92°
2026-04-23 22:23 41.89546 8.68832 2892 ft 166 kts 63°
2026-04-23 22:23 41.90262 8.70044 2614 ft 169 kts 45°
2026-04-23 22:23 41.91170 8.71065 2341 ft 173 kts 41°
2026-04-23 22:24 41.92060 8.72075 2278 ft 167 kts 41°
2026-04-23 22:24 41.92953 8.73049 2149 ft 164 kts 35°
2026-04-23 22:24 41.93945 8.73779 2059 ft 163 kts 25°
2026-04-23 22:24 41.94965 8.74385 1991 ft 154 kts 24°
2026-04-23 22:25 41.95836 8.75150 1987 ft 147 kts 44°
2026-04-23 22:25 41.96454 8.76243 1811 ft 149 kts 62°
2026-04-23 22:25 41.96743 8.77534 1610 ft 140 kts 87°
2026-04-23 22:25 41.96623 8.78838 1394 ft 143 kts 100°
2026-04-23 22:26 41.96303 8.80105 1091 ft 140 kts 120°
2026-04-23 22:26 41.95650 8.81063 848 ft 140 kts 144°
2026-04-23 22:26 41.94749 8.81483 567 ft 139 kts 180°
2026-04-23 22:26 41.93829 8.81081 263 ft 140 kts 204°
2026-04-23 22:27 41.92930 8.80582 62 ft 141 kts 204°
2026-04-23 22:27 41.92140 8.80090 22 ft 90 kts 204°
2026-04-23 22:27 41.91843 8.79906 18 ft 8 kts 206°
2026-04-23 22:27 41.91725 8.79833 16 ft 42 kts 205°
2026-04-23 22:28 41.91448 8.79659 18 ft 43 kts 205°
2026-04-23 22:28 41.91251 8.79523 23 ft 20 kts 226°
2026-04-23 22:28 41.91286 8.79404 23 ft 10 kts 333°
2026-04-23 22:28 41.91340 8.79368 27 ft 7 kts 334°
2026-04-23 22:29 41.91445 8.79334 26 ft 22 kts
2026-04-23 22:29 41.91574 8.79406 28 ft 18 kts 26°
2026-04-23 22:29 41.91680 8.79473 29 ft 15 kts 24°
2026-04-23 22:29 41.91760 8.79523 28 ft 11 kts 25°
2026-04-23 22:30 41.91810 8.79544 30 ft 3 kts 340°
2026-04-23 22:30 41.91820 8.79525 26 ft 1 kts 305°
2026-04-23 22:30 41.91827 8.79516 26 ft 2 kts 316°
2026-04-23 22:30 41.91834 8.79512 30 ft 1 kts 337°
2026-04-23 22:31 41.91840 8.79510 26 ft 2 kts 340°
2026-04-23 22:31 41.91848 8.79506 26 ft 1 kts 344°
2026-04-23 22:31 41.91850 8.79506 26 ft 0 kts 344°
2026-04-23 22:31 41.91856 8.79503 26 ft 0 kts 345°
2026-04-23 22:49 41.91856 8.79504 26 ft 0 kts 345°
2026-04-23 22:49 41.91856 8.79503 26 ft 0 kts 345°
2026-04-23 22:51 41.91856 8.79504 26 ft 0 kts 345°